FW7539 Weather Reports


time (UTC)temp
C
wind
direction
speed
KPH
gust
KPH
rain 1hr
cm
rain 24hr
cm
rain mn
cm
humidity
%
barometer
mb
20260505111524 13 133 0.0 4.8 0.03 0.43 0.43 89 1008.4
20260505111003 13 155 1.6 4.8 0.08 0.43 0.43 89 1008.1
20260505110503 13 189 1.6 4.8 0.15 0.43 0.43 89 1007.8
20260505102004 14 250 0.0 3.2 0.38 0.41 0.41 88 1009.2
20260505101503 14 259 0.0 3.2 0.36 0.38 0.41 88 1009.3
20260505101003 14 279 0.0 3.2 0.36 0.36 0.36 88 1009.4
20260505100503 14 266 1.6 6.4 0.25 0.25 0.25 87 1009.5
20260505100003 14 259 3.2 8.0 0.20 0.20 0.20 87 1009.6
20260505095503 14 274 3.2 8.0 0.15 0.15 0.15 86 1009.6
20260505095003 15 293 1.6 6.4 0.13 0.13 0.13 85 1009.6
20260505094503 15 287 1.6 6.4 0.10 0.10 0.10 84 1009.8
20260505094003 15 303 3.2 6.4 0.10 0.10 0.10 83 1009.6
20260505093503 15 328 3.2 14.5 0.08 0.08 0.08 82 1009.4
20260505093004 15 293 3.2 14.5 0.05 0.05 0.05 80 1009.3
20260505092503 16 269 1.6 6.4 0.05 0.05 0.05 78 1009.2
20260505092004 16 290 1.6 6.4 0.03 0.03 0.03 76 1008.7
20260505091524 17 289 3.2 9.7 0.03 0.03 0.03 74 1008.5
20260505091003 17 262 1.6 9.7 0.00 0.00 0.00 69 1008.5
20260505090524 17 257 1.6 4.8 0.00 0.00 0.00 65 1008.4
20260505090003 17 260 0.0 4.8 0.00 0.00 0.00 64 1008.0
20260505085502 17 251 0.0 1.6 0.00 0.00 0.00 64 1007.9
20260505085003 17 251 0.0 3.2 0.00 0.00 0.00 64 1007.8
20260505084524 17 244 1.6 8.0 0.00 0.00 0.00 64 1007.7
20260505084003 17 239 1.6 8.0 0.00 0.00 0.00 63 1007.7
20260505083503 17 249 0.0 6.4 0.00 0.00 0.00 63 1007.6
20260505083003 17 262 0.0 3.2 0.00 0.00 0.00 63 1007.5
20260505082503 17 218 1.6 3.2 0.00 0.00 0.00 63 1007.4
20260505082004 17 196 1.6 3.2 0.00 0.00 0.00 62 1007.3
20260505081503 18 190 0.0 3.2 0.00 0.00 0.00 63 1007.2
20260505081003 18 180 0.0 4.8 0.00 0.00 0.00 62 1007.1
20260505080503 18 191 1.6 6.4 0.00 0.00 0.00 62 1007.0
20260505080003 18 232 1.6 6.4 0.00 0.00 0.00 61 1007.1
20260505075503 18 237 0.0 6.4 0.00 0.00 0.00 61 1007.2
20260505075004 18 229 0.0 4.8 0.00 0.00 0.00 61 1007.2
20260505074504 18 234 1.6 6.4 0.00 0.00 0.00 60 1007.4
20260505074003 18 235 1.6 8.0 0.00 0.00 0.00 60 1007.3
20260505073503 18 242 1.6 8.0 0.00 0.00 0.00 60 1007.2
20260505073003 18 234 1.6 8.0 0.00 0.00 0.00 59 1007.1
20260505072524 18 204 1.6 8.0 0.00 0.00 0.00 59 1007.0
20260505072003 18 209 3.2 12.9 0.00 0.00 0.00 59 1006.8
20260505071524 18 228 3.2 12.9 0.00 0.00 0.00 58 1006.7
20260505071003 18 211 3.2 16.1 0.00 0.00 0.00 59 1006.7
20260505070503 19 217 4.8 17.7 0.00 0.00 0.00 59 1006.7
20260505070003 19 235 3.2 17.7 0.00 0.00 0.00 59 1006.7
20260505065503 19 177 3.2 16.1 0.00 0.00 0.00 58 1006.8
20260505065003 19 157 4.8 17.7 0.00 0.00 0.00 58 1006.6
20260505064504 19 169 4.8 17.7 0.00 0.00 0.00 58 1006.7
20260505064003 19 174 4.8 20.9 0.00 0.00 0.00 57 1006.7
20260505063504 19 169 4.8 20.9 0.00 0.00 0.00 57 1006.8
20260505063004 19 164 4.8 17.7 0.00 0.00 0.00 57 1006.7
20260505062503 19 163 4.8 16.1 0.00 0.00 0.00 57 1006.7
20260505062003 19 155 4.8 16.1 0.00 0.00 0.00 57 1006.7
20260505061524 19 156 4.8 14.5 0.00 0.00 0.00 57 1006.7
20260505061004 19 161 4.8 14.5 0.00 0.00 0.00 57 1006.8
20260505060503 19 157 4.8 12.9 0.00 0.00 0.00 57 1006.6
20260505060026 19 159 4.8 14.5 0.00 0.00 0.00 57 1006.6
20260505055503 19 184 4.8 16.1 0.00 0.00 0.00 57 1006.5
20260505055024 20 173 4.8 17.7 0.00 0.00 0.00 57 1006.3
20260505054504 20 153 4.8 17.7 0.00 0.00 0.00 57 1006.3
20260505054024 20 159 3.2 14.5 0.00 0.00 0.00 57 1006.1
20260505053503 20 156 4.8 19.3 0.00 0.00 0.00 56 1006.1
20260505053003 20 157 6.4 19.3 0.00 0.00 0.00 55 1006.0
20260505052503 20 161 4.8 16.1 0.00 0.00 0.00 55 1006.0
20260505052003 20 166 4.8 14.5 0.00 0.00 0.00 55 1006.0
20260505051503 20 174 4.8 17.7 0.00 0.00 0.00 55 1006.0
20260505051003 20 181 4.8 19.3 0.00 0.00 0.00 55 1006.0
20260505050524 20 174 3.2 19.3 0.00 0.00 0.00 55 1006.1
20260505041503 20 174 4.8 20.9 0.00 0.00 0.00 55 1006.7
20260505041025 20 161 4.8 20.9 0.00 0.00 0.00 56 1006.6
20260505040503 20 166 4.8 14.5 0.00 0.00 0.00 56 1006.8
20260505040004 20 161 4.8 16.1 0.00 0.00 0.00 56 1006.8
20260505035503 20 155 3.2 16.1 0.00 0.00 0.00 56 1006.9
20260505035004 20 183 3.2 16.1 0.00 0.00 0.00 56 1006.9
20260505034504 20 189 4.8 16.1 0.00 0.00 0.00 56 1006.9
20260505034003 20 172 4.8 12.9 0.00 0.00 0.00 57 1006.9
20260505033504 20 180 4.8 17.7 0.00 0.00 0.00 57 1006.8
20260505033004 20 169 4.8 17.7 0.00 0.00 0.00 57 1006.9
20260505032505 20 146 3.2 9.7 0.00 0.00 0.00 57 1006.8
20260505032004 20 155 3.2 8.0 0.00 0.00 0.00 57 1006.8
20260505031504 20 157 3.2 11.3 0.00 0.00 0.00 57 1006.8
20260505031003 20 162 3.2 11.3 0.00 0.00 0.00 57 1006.8
20260505030501 20 157 3.2 8.0 0.00 0.00 0.00 57 1006.8
20260505030001 20 156 3.2 9.7 0.00 0.00 0.00 58 1006.7
20260505025501 20 154 3.2 14.5 0.00 0.00 0.00 57 1006.7
20260505025001 20 155 3.2 14.5 0.00 0.00 0.00 57 1006.6
20260505024501 20 164 3.2 11.3 0.00 0.00 0.00 57 1006.5
20260505024023 20 160 3.2 11.3 0.00 0.00 0.00 57 1006.5
20260505023522 21 139 3.2 12.9 0.00 0.00 0.00 57 1006.4
20260505023001 21 138 3.2 12.9 0.00 0.00 0.00 57 1006.4
20260505022502 20 143 3.2 8.0 0.00 0.00 0.00 57 1006.4
20260505022001 20 144 3.2 11.3 0.00 0.00 0.00 57 1006.3
20260505021501 20 146 3.2 11.3 0.00 0.00 0.00 58 1006.3
20260505021023 20 142 3.2 9.7 0.00 0.00 0.00 58 1006.1
20260505020523 20 145 1.6 6.4 0.00 0.00 0.00 58 1006.0
20260505020001 20 150 1.6 9.7 0.00 0.00 0.00 58 1006.0
20260505015502 20 144 1.6 9.7 0.00 0.00 0.00 59 1005.9
20260505015001 20 139 1.6 4.8 0.00 0.00 0.00 59 1005.9
20260505014522 20 136 1.6 4.8 0.00 0.00 0.00 58 1005.8
20260505014022 21 136 1.6 6.4 0.00 0.00 0.00 57 1005.8
20260505013501 21 149 1.6 6.4 0.00 0.00 0.00 57 1005.7
20260505013002 21 148 1.6 4.8 0.00 0.00 0.00 57 1005.7
20260505012522 21 134 1.6 4.8 0.00 0.00 0.00 57 1005.7
20260505012001 21 137 1.6 4.8 0.00 0.00 0.00 57 1005.7
20260505011501 21 137 1.6 6.4 0.00 0.00 0.00 56 1005.6
20260505011001 21 137 1.6 8.0 0.00 0.00 0.00 56 1005.6
20260505010523 21 140 1.6 8.0 0.00 0.00 0.00 56 1005.6
20260505005957 21 137 1.6 8.0 0.00 0.00 0.00 56 1005.6
20260505005455 21 146 3.2 8.0 0.00 0.00 0.00 55 1005.6
20260505005016 21 146 1.6 8.0 0.00 0.00 0.00 55 1005.6
20260505004455 21 148 1.6 6.4 0.00 0.00 0.00 55 1005.6
20260505003955 21 149 1.6 6.4 0.00 0.00 0.00 54 1005.7
20260505003455 22 134 1.6 4.8 0.00 0.00 0.00 53 1005.6
20260505002956 22 139 3.2 8.0 0.00 0.00 0.00 54 1005.6
20260505002456 22 147 3.2 11.3 0.00 0.00 0.00 52 1005.7
20260505001956 22 146 3.2 11.3 0.00 0.00 0.00 52 1005.7
20260505001455 22 152 3.2 8.0 0.00 0.00 0.00 51 1005.7
20260505000955 22 153 3.2 9.7 0.00 0.00 0.00 51 1005.7
20260505000455 22 155 3.2 9.7 0.00 0.00 0.00 51 1005.8
20260504235955 22 168 3.2 8.0 0.00 0.00 0.00 51 1005.8
20260504235455 22 181 3.2 6.4 0.00 0.00 0.00 51 1005.9
20260504234955 22 195 3.2 11.3 0.00 0.00 0.00 50 1005.9
20260504234455 22 187 3.2 14.5 0.00 0.00 0.00 51 1006.1
20260504233955 22 182 4.8 14.5 0.00 0.00 0.00 50 1006.2
20260504233455 23 169 4.8 11.3 0.00 0.00 0.00 49 1006.3
20260504232955 23 164 4.8 8.0 0.00 0.00 0.00 48 1006.3
20260504232455 23 186 3.2 12.9 0.00 0.00 0.00 48 1006.4
20260504231955 23 190 3.2 12.9 0.00 0.00 0.00 46 1006.5
20260504231455 23 201 3.2 16.1 0.00 0.00 0.00 45 1006.4
20260504230956 23 205 6.4 19.3 0.00 0.00 0.00 45 1006.5
20260504230455 23 198 8.0 19.3 0.00 0.00 0.00 44 1006.5
20260504225955 24 183 8.0 19.3 0.00 0.00 0.00 43 1006.5
20260504225456 24 193 6.4 22.5 0.00 0.00 0.00 44 1006.6
20260504225016 24 196 6.4 22.5 0.00 0.00 0.00 44 1006.7
20260504224455 24 184 4.8 17.7 0.00 0.00 0.00 45 1006.7
20260504223955 24 208 6.4 17.7 0.00 0.00 0.00 45 1006.6
20260504223456 24 201 6.4 17.7 0.00 0.00 0.00 46 1006.7
20260504222955 23 200 4.8 16.1 0.00 0.00 0.00 47 1006.7
20260504222455 23 188 3.2 16.1 0.00 0.00 0.00 50 1006.7
20260504221955 23 160 4.8 14.5 0.00 0.00 0.00 51 1006.7
20260504221455 23 153 4.8 14.5 0.00 0.00 0.00 51 1006.7
20260504220955 23 143 4.8 11.3 0.00 0.00 0.00 51 1006.8
20260504220516 23 142 3.2 9.7 0.00 0.00 0.00 50 1006.6
20260504215955 23 141 3.2 11.3 0.00 0.00 0.00 51 1006.6
20260504215517 23 152 3.2 11.3 0.00 0.00 0.00 51 1006.7
20260504214956 23 189 1.6 4.8 0.00 0.00 0.00 50 1006.9
20260504214455 23 230 1.6 12.9 0.00 0.00 0.00 50 1007.0
20260504213955 23 241 3.2 12.9 0.00 0.00 0.00 48 1007.2
20260504213455 24 221 1.6 8.0 0.00 0.00 0.00 49 1007.3
20260504212955 24 225 3.2 11.3 0.00 0.00 0.00 46 1007.2
20260504212456 25 242 4.8 17.7 0.00 0.00 0.00 47 1007.2
20260504211955 25 249 3.2 17.7 0.00 0.00 0.00 47 1007.4
20260504211455 25 235 3.2 11.3 0.00 0.00 0.00 46 1007.4
20260504210955 25 246 3.2 9.7 0.00 0.00 0.00 48 1007.6
20260504210517 24 245 3.2 14.5 0.00 0.00 0.00 47 1007.6
20260504205956 24 236 4.8 14.5 0.00 0.00 0.00 48 1007.7
20260504205455 24 245 3.2 11.3 0.00 0.00 0.00 46 1007.7
20260504204955 24 211 4.8 14.5 0.00 0.00 0.00 48 1007.7
20260504204455 23 198 4.8 14.5 0.00 0.00 0.00 51 1007.8
20260504203955 23 159 4.8 14.5 0.00 0.00 0.00 49 1007.8
20260504203456 24 163 4.8 14.5 0.00 0.00 0.00 48 1007.8
20260504202955 24 210 4.8 14.5 0.00 0.00 0.00 50 1008.0
20260504202516 23 221 4.8 16.1 0.00 0.00 0.00 52 1008.1
20260504201955 23 224 4.8 16.1 0.00 0.00 0.00 53 1008.1
20260504201455 23 225 4.8 16.1 0.00 0.00 0.00 52 1008.2
20260504200955 23 226 4.8 16.1 0.00 0.00 0.00 52 1008.2
20260504200455 23 208 3.2 16.1 0.00 0.00 0.00 53 1008.4
20260504195955 23 180 4.8 14.5 0.00 0.00 0.00 51 1008.5
20260504195456 23 197 4.8 14.5 0.00 0.00 0.00 52 1008.5
20260504194955 23 196 3.2 9.7 0.00 0.00 0.00 52 1008.6
20260504194455 23 182 4.8 17.7 0.00 0.00 0.00 52 1008.7
20260504193955 23 174 3.2 17.7 0.00 0.00 0.00 53 1008.8
20260504193455 22 173 3.2 12.9 0.00 0.00 0.00 53 1008.7
20260504192955 22 191 3.2 12.9 0.00 0.00 0.00 53 1008.9
20260504192516 22 207 3.2 9.7 0.00 0.00 0.00 57 1009.0
20260504192016 22 229 3.2 12.9 0.00 0.00 0.00 57 1009.2
20260504191455 21 220 3.2 14.5 0.00 0.00 0.00 58 1009.2
20260504191016 21 225 3.2 14.5 0.00 0.00 0.00 56 1009.3
20260504190516 21 232 3.2 12.9 0.00 0.00 0.00 59 1009.2
20260504185955 21 241 3.2 11.3 0.00 0.00 0.00 61 1009.5
20260504185455 21 240 4.8 12.9 0.00 0.00 0.00 61 1009.5
20260504185016 21 223 3.2 12.9 0.00 0.00 0.00 63 1009.5
20260504184516 20 223 1.6 6.4 0.00 0.00 0.00 63 1009.6
20260504183955 20 212 3.2 6.4 0.00 0.00 0.00 62 1009.7
20260504183455 20 189 3.2 12.9 0.00 0.00 0.00 62 1009.7
20260504182955 20 213 3.2 12.9 0.00 0.00 0.00 61 1009.6
20260504182455 20 201 4.8 19.3 0.00 0.00 0.00 61 1009.6
20260504182016 20 185 4.8 19.3 0.00 0.00 0.00 60 1009.6
20260504181456 20 174 4.8 14.5 0.00 0.00 0.00 61 1009.6
20260504180955 20 166 4.8 17.7 0.00 0.00 0.00 60 1009.5
20260504180455 20 186 4.8 17.7 0.00 0.00 0.00 60 1009.3
20260504175955 20 189 4.8 16.1 0.00 0.00 0.00 60 1009.4
20260504175455 21 177 4.8 14.5 0.00 0.00 0.00 58 1009.3
20260504174955 21 166 4.8 14.5 0.00 0.00 0.00 60 1009.1
20260504174455 21 185 6.4 14.5 0.00 0.00 0.00 58 1009.0
20260504174016 21 202 4.8 14.5 0.00 0.00 0.00 57 1008.9
20260504173455 21 171 6.4 16.1 0.00 0.00 0.00 59 1008.9
20260504172955 21 160 6.4 17.7 0.00 0.00 0.00 58 1008.9
20260504172456 21 173 4.8 17.7 0.00 0.00 0.00 58 1009.0
20260504171956 21 196 4.8 16.1 0.00 0.00 0.00 60 1009.0
20260504171455 20 178 4.8 16.1 0.00 0.00 0.00 60 1009.2
20260504170955 20 193 4.8 16.1 0.00 0.00 0.00 59 1009.1
20260504170456 20 196 4.8 14.5 0.00 0.00 0.00 59 1009.3
20260504150956 17 154 4.8 14.5 0.00 0.00 0.00 64 1010.0
20260504150455 17 163 4.8 12.9 0.00 0.00 0.00 63 1009.9
20260504140956 16 196 4.8 14.5 0.00 0.00 0.00 67 1010.0
20260504140517 16 201 4.8 12.9 0.00 0.00 0.00 67 1009.9
20260504130516 13 168 3.2 17.7 0.00 0.00 0.00 70 1010.5